When you browse on this site, cookies collect data to enhance your experience and personalize the content and advertising you see.
Visit our Privacy Policy to learn more. By continuing to use the site, you agree to this use of cookies and data.
  • In Belgium
  • List of Countries
  • For 7 days
  • Water Temperature
  • Satellite Maps
  • Weather Map
  • Weather Widgets
  • user-avatar
    Login

    Hourly Weather Andenne

    Today, 22 January, Tuesday

    Time Temperature Precipitation Wind Pressure Humidity
    00:00 -5°C° 0 mm 3 mps 752 mmHg 54%
    01:00 -5°C° 0 mm 4 mps 751 mmHg 54%
    02:00 -5°C° 0 mm 4 mps 750 mmHg 55%
    03:00 -6°C° 0 mm 5 mps 749 mmHg 55%
    04:00 -6°C° 0 mm 5 mps 748 mmHg 56%
    05:00 -5°C° 0 mm 5 mps 748 mmHg 56%
    06:00 -5°C° 0 mm 6 mps 747 mmHg 57%
    07:00 -5°C° 0 mm 6 mps 746 mmHg 54%
    08:00 -4°C° 0 mm 7 mps 745 mmHg 51%
    09:00 -4°C° 0 mm 7 mps 745 mmHg 48%
    10:00 -3°C° 0.1 mm 7 mps 744 mmHg 51%
    11:00 -3°C° 0.1 mm 7 mps 743 mmHg 54%
    12:00 -3°C° 0.1 mm 7 mps 743 mmHg 57%
    13:00 -3°C° 0.4 mm 7 mps 742 mmHg 66%
    14:00 -3°C° 0.4 mm 6 mps 742 mmHg 75%
    15:00 -4°C° 0.4 mm 6 mps 741 mmHg 84%
    16:00 -4°C° 0.3 mm 5 mps 741 mmHg 86%
    17:00 -3°C° 0.3 mm 4 mps 741 mmHg 88%
    18:00 -3°C° 0.3 mm 4 mps 740 mmHg 90%
    19:00 -2°C° 0 mm 3 mps 740 mmHg 91%
    20:00 -4°C° 0 mm 3 mps 740 mmHg 92%
    21:00 -4°C° 0 mm 3 mps 740 mmHg 93%
    22:00 -4°C° 0 mm 3 mps 739 mmHg 93%
    23:00 -4°C° 0 mm 3 mps 739 mmHg 94%

    Tomorrow, 23 January, Wednesday

    Time Temperature Precipitation Wind Pressure Humidity
    00:00 -2°C° 0 mm 3 mps 738 mmHg 94%
    01:00 -2°C° 0 mm 3 mps 738 mmHg 93%
    02:00 -2°C° 0 mm 3 mps 737 mmHg 91%
    03:00 -2°C° 0 mm 3 mps 737 mmHg 90%
    04:00 -2°C° 0 mm 3 mps 737 mmHg 90%
    05:00 -2°C° 0 mm 3 mps 736 mmHg 90%
    06:00 -4°C° 0 mm 3 mps 736 mmHg 90%
    07:00 -2°C° 0 mm 3 mps 736 mmHg 88%
    08:00 -2°C° 0 mm 3 mps 737 mmHg 86%
    09:00 -2°C° 0 mm 3 mps 737 mmHg 84%
    10:00 -1°C° 0 mm 3 mps 737 mmHg 82%
    11:00 0°C° 0 mm 3 mps 738 mmHg 79%
    12:00 0°C° 0 mm 3 mps 738 mmHg 77%
    13:00 0°C° 0 mm 3 mps 738 mmHg 80%
    14:00 0°C° 0 mm 3 mps 739 mmHg 82%
    15:00 -1°C° 0 mm 4 mps 739 mmHg 85%
    16:00 -1°C° 0 mm 3 mps 740 mmHg 88%
    17:00 -2°C° 0 mm 3 mps 741 mmHg 92%
    18:00 -4°C° 0 mm 3 mps 742 mmHg 96%
    19:00 -2°C° 0.1 mm 3 mps 742 mmHg 95%
    20:00 -2°C° 0.1 mm 3 mps 743 mmHg 95%
    21:00 -2°C° 0.1 mm 3 mps 744 mmHg 95%
    22:00 -2°C° 0 mm 3 mps 744 mmHg 95%
    23:00 -2°C° 0 mm 3 mps 744 mmHg 95%

    Day after tomorrow, 24 January, Thursday

    Time Temperature Precipitation Wind Pressure Humidity
    00:00 -3°C° 0 mm 2 mps 745 mmHg 96%
    01:00 -3°C° 0 mm 2 mps 745 mmHg 96%
    02:00 -3°C° 0 mm 2 mps 746 mmHg 96%
    03:00 -4°C° 0 mm 2 mps 746 mmHg 96%
    04:00 -3°C° 0 mm 2 mps 747 mmHg 95%
    05:00 -3°C° 0 mm 2 mps 747 mmHg 95%
    06:00 -3°C° 0 mm 2 mps 747 mmHg 94%
    07:00 -3°C° 0 mm 2 mps 748 mmHg 93%
    08:00 -1°C° 0 mm 1 mps 748 mmHg 92%
    09:00 0°C° 0 mm 1 mps 749 mmHg 91%
    10:00 0°C° 0 mm 1 mps 749 mmHg 87%
    11:00 -1°C° 0 mm 2 mps 749 mmHg 84%
    12:00 +1°C° 0 mm 2 mps 749 mmHg 81%
    13:00 +1°C° 0 mm 2 mps 750 mmHg 84%
    14:00 +1°C° 0 mm 2 mps 750 mmHg 86%
    15:00 +1°C° 0 mm 2 mps 750 mmHg 89%
    16:00 +1°C° 0 mm 2 mps 750 mmHg 91%
    17:00 +1°C° 0 mm 1 mps 751 mmHg 94%
    18:00 +1°C° 0 mm 1 mps 751 mmHg 96%
    19:00 0°C° 0 mm 1 mps 751 mmHg 96%
    20:00 0°C° 0 mm 1 mps 752 mmHg 95%
    21:00 0°C° 0 mm 1 mps 752 mmHg 95%
    22:00 0°C° 0 mm 1 mps 752 mmHg 95%
    23:00 -1°C° 0 mm 1 mps 752 mmHg 94%

    25 January, Friday

    Time Temperature Precipitation Wind Pressure Humidity
    00:00 -1°C° 0 mm 1 mps 752 mmHg 94%
    01:00 -3°C° 0 mm 2 mps 752 mmHg 94%
    02:00 -3°C° 0 mm 2 mps 752 mmHg 94%
    03:00 -3°C° 0 mm 2 mps 752 mmHg 95%
    04:00 -3°C° 0 mm 2 mps 752 mmHg 94%
    05:00 -3°C° 0 mm 2 mps 752 mmHg 94%
    06:00 -3°C° 0 mm 2 mps 752 mmHg 94%
    07:00 -2°C° 0 mm 2 mps 752 mmHg 92%
    08:00 -2°C° 0 mm 2 mps 752 mmHg 90%
    09:00 -1°C° 0 mm 3 mps 752 mmHg 87%
    10:00 0°C° 0 mm 3 mps 752 mmHg 85%
    11:00 +1°C° 0 mm 3 mps 752 mmHg 82%
    12:00 0°C° 0 mm 4 mps 752 mmHg 80%
    13:00 0°C° 0 mm 4 mps 752 mmHg 81%
    14:00 0°C° 0 mm 4 mps 751 mmHg 82%
    15:00 0°C° 0 mm 4 mps 751 mmHg 83%
    16:00 -1°C° 0 mm 4 mps 751 mmHg 85%
    17:00 -1°C° 0 mm 4 mps 751 mmHg 87%
    18:00 -2°C° 0 mm 4 mps 751 mmHg 89%
    19:00 -1°C° 0.1 mm 5 mps 750 mmHg 89%
    20:00 -1°C° 0.1 mm 5 mps 750 mmHg 88%
    21:00 -2°C° 0.1 mm 6 mps 750 mmHg 88%
    22:00 -2°C° 0.2 mm 6 mps 749 mmHg 88%
    23:00 -2°C° 0.2 mm 6 mps 749 mmHg 88%

    26 January, Saturday

    Time Temperature Precipitation Wind Pressure Humidity
    00:00 -2°C° 0.2 mm 6 mps 748 mmHg 89%
    01:00 -1°C° 0 mm 6 mps 748 mmHg 89%
    02:00 -1°C° 0 mm 6 mps 747 mmHg 90%
    03:00 -1°C° 0 mm 6 mps 746 mmHg 91%
    04:00 -1°C° 0 mm 6 mps 745 mmHg 91%
    05:00 -1°C° 0 mm 6 mps 744 mmHg 91%
    06:00 -1°C° 0 mm 6 mps 743 mmHg 91%
    07:00 -1°C° 0.5 mm 6 mps 743 mmHg 90%
    08:00 0°C° 0.5 mm 7 mps 742 mmHg 90%
    09:00 +2°C° 0.5 mm 7 mps 742 mmHg 89%
    10:00 +2°C° 1.5 mm 7 mps 741 mmHg 89%
    11:00 +2°C° 1.5 mm 7 mps 740 mmHg 90%
    12:00 +2°C° 1.5 mm 7 mps 740 mmHg 90%
    13:00 +2°C° 1.7 mm 7 mps 739 mmHg 90%
    14:00 +2°C° 1.7 mm 6 mps 738 mmHg 91%
    15:00 +2°C° 1.7 mm 6 mps 737 mmHg 91%
    16:00 +2°C° 1.1 mm 5 mps 737 mmHg 92%
    17:00 +1°C° 1.1 mm 4 mps 737 mmHg 93%
    18:00 +2°C° 1.1 mm 3 mps 737 mmHg 93%
    19:00 +2°C° 1.5 mm 3 mps 737 mmHg 95%
    20:00 +3°C° 1.5 mm 2 mps 737 mmHg 96%
    21:00 +2°C° 1.5 mm 2 mps 737 mmHg 97%
    22:00 +1°C° 0.8 mm 3 mps 737 mmHg 96%
    23:00 0°C° 0.8 mm 4 mps 737 mmHg 96%

    27 January, Sunday

    Time Temperature Precipitation Wind Pressure Humidity
    00:00 0°C° 0.8 mm 5 mps 738 mmHg 95%
    01:00 -1°C° 1 mm 6 mps 738 mmHg 94%
    02:00 -1°C° 1 mm 6 mps 738 mmHg 93%
    03:00 -1°C° 1 mm 7 mps 738 mmHg 92%
    04:00 -1°C° 0.6 mm 6 mps 739 mmHg 92%
    05:00 0°C° 0.6 mm 5 mps 739 mmHg 92%
    06:00 0°C° 0.6 mm 4 mps 740 mmHg 92%
    07:00 +1°C° 0.1 mm 3 mps 740 mmHg 94%
    08:00 +1°C° 0.1 mm 3 mps 741 mmHg 95%
    09:00 +1°C° 0.1 mm 3 mps 741 mmHg 97%
    10:00 +1°C° 0.1 mm 3 mps 742 mmHg 96%
    11:00 +1°C° 0.1 mm 4 mps 742 mmHg 95%
    12:00 +3°C° 0.1 mm 4 mps 742 mmHg 94%
    13:00 +1°C° 0.1 mm 4 mps 743 mmHg 92%
    14:00 +1°C° 0.1 mm 4 mps 743 mmHg 91%
    15:00 +2°C° 0.1 mm 3 mps 743 mmHg 89%
    16:00 +1°C° 0.1 mm 3 mps 743 mmHg 89%
    17:00 0°C° 0.1 mm 3 mps 744 mmHg 90%
    18:00 -1°C° 0.1 mm 3 mps 744 mmHg 90%
    19:00 -1°C° 0 mm 2 mps 745 mmHg 90%
    20:00 -2°C° 0 mm 2 mps 745 mmHg 90%
    21:00 -2°C° 0 mm 2 mps 746 mmHg 90%
    22:00 -3°C° 0 mm 2 mps 746 mmHg 90%
    23:00 -1°C° 0 mm 1 mps 746 mmHg 90%
    Show more